This demonstration page uses our WeatherBlox Daily Observations layout. Learn more.

Left ArrowRight Arrow

40.92945, -100.16068

Hourly Observations for September 11, 2016

Temp ( °F °C ) Dew Point ( °F °C ) Humidity (%) Winds ( mph kmh ) Pressure ( in mb ) Visibility ( mi km ) Precip ( " mm )
12:15 am 00:15 Clear 55 12.8 46 7.6 71 71 SSE 9 15 30.09 1019 10 16 N/A
12:35 am 00:35 Clear 55 12.9 46 7.5 70 70 SSE 8 13 30.09 1019 10 16 N/A
12:55 am 00:55 Clear 55 12.7 46 7.5 71 71 SSE 6 9 30.09 1019 10 16 N/A
1:15 am 01:15 Clear 55 12.7 46 7.5 71 71 S 8 13 30.09 1019 10 16 N/A
1:35 am 01:35 Clear 57 13.9 46 7.5 66 66 S 13 20 30.09 1019 10 16 N/A
1:55 am 01:55 Clear 57 14 46 7.5 65 65 S 14 22 30.09 1019 10 16 N/A
2:15 am 02:15 Clear 57 14 46 7.5 65 65 S 15 24 30.09 1019 10 16 N/A
2:35 am 02:35 Clear 57 13.9 46 7.5 66 66 S 17 28 30.09 1019 10 16 N/A
2:55 am 02:55 Clear 58 14.2 45 7.4 64 64 S 16 26 30.06 1018 10 16 N/A
3:15 am 03:15 Clear 58 14.3 45 7.4 63 63 S 16 26 30.03 1017 10 16 N/A
3:35 am 03:35 Clear 58 14.3 46 7.5 64 64 S 15 24 30.03 1017 10 16 N/A
3:55 am 03:55 Clear 58 14.3 46 7.6 64 64 S 16 26 30.03 1017 10 16 N/A
4:15 am 04:15 Clear 57 14 46 7.9 67 67 S 14 22 30.03 1017 10 16 N/A
4:35 am 04:35 Clear 57 13.9 46 8 68 68 S 14 22 30.03 1017 10 16 N/A
4:55 am 04:55 Clear 57 13.8 46 8 68 68 S 14 22 30.00 1016 10 16 N/A
5:15 am 05:15 Clear 56 13.5 47 8.1 70 70 S 13 20 30.00 1016 10 16 N/A
5:35 am 05:35 Clear 56 13.2 47 8.2 72 72 S 14 22 30.03 1017 10 16 N/A
5:55 am 05:55 Clear 56 13.3 47 8.3 72 72 S 10 17 30.03 1017 10 16 N/A
6:15 am 06:15 Clear 56 13.3 47 8.4 72 72 S 15 24 30.03 1017 10 16 N/A
6:35 am 06:35 Clear 56 13.1 47 8.5 74 74 S 15 24 30.03 1017 10 16 N/A
6:55 am 06:55 Clear 55 13 47 8.5 74 74 S 15 24 30.03 1017 10 16 N/A
7:15 am 07:15 Clear 56 13.1 47 8.6 74 74 S 13 20 30.03 1017 10 16 N/A
7:35 am 07:35 Sunny 55 12.8 48 8.7 76 76 S 9 15 30.03 1017 10 16 N/A
7:55 am 07:55 Sunny 55 13 48 8.9 76 76 S 7 11 30.03 1017 10 16 N/A
8:15 am 08:15 Sunny 57 13.7 48 9.1 74 74 S 8 13 30.00 1016 10 16 N/A
8:35 am 08:35 Sunny 58 14.4 49 9.5 73 73 S 10 17 30.00 1016 10 16 N/A
8:55 am 08:55 Sunny 59 15.1 49 9.6 70 70 S 12 19 30.00 1016 10 16 N/A
9:15 am 09:15 Sunny 60 15.8 50 9.9 68 68 S 15 24 30.00 1016 10 16 N/A
9:35 am 09:35 Sunny 62 16.7 50 10.1 65 65 SSW 15 24 30.00 1016 10 16 N/A
9:55 am 09:55 Sunny 64 17.5 50 10.2 62 62 SSW 15 24 29.97 1015 10 16 N/A
10:15 am 10:15 Sunny 65 18.2 51 10.6 61 61 SSW 17 28 29.97 1015 10 16 N/A
10:35 am 10:35 Sunny 66 19 51 10.8 59 59 SSW 15 24 29.97 1015 10 16 N/A
10:55 am 10:55 Sunny 68 19.8 52 11.1 57 57 S 13 20 29.97 1015 10 16 N/A
11:15 am 11:15 Sunny 70 20.9 52 11.3 54 54 SSW 13 20 29.94 1014 10 16 N/A
11:35 am 11:35 Sunny 70 21.2 52 11.3 53 53 SSW 12 19 29.94 1014 10 16 N/A
11:55 am 11:55 Sunny 72 22.1 53 11.5 51 51 S 14 22 29.91 1013 10 16 N/A
12:15 pm 12:15 Sunny 74 23.1 53 11.9 49 49 S 15 24 29.91 1013 10 16 N/A
12:35 pm 12:35 Sunny 74 23.6 53 11.8 48 48 S 16 26 29.88 1012 10 16 N/A
12:55 pm 12:55 Sunny 76 24.3 53 11.9 46 46 S 15 24 29.88 1012 10 16 N/A
1:15 pm 13:15 Sunny 77 25.2 55 12.7 46 46 S 14 22 29.85 1011 10 16 N/A
1:35 pm 13:35 Sunny 78 25.6 54 12.2 43 43 S 16 26 29.85 1011 10 16 N/A
1:55 pm 13:55 Sunny 79 26.1 54 12.4 43 43 S 15 24 29.85 1011 10 16 N/A
2:15 pm 14:15 Sunny 80 26.5 55 12.8 43 43 S 17 28 29.80 1009 10 16 N/A
2:35 pm 14:35 Sunny 81 27.1 56 13.1 42 42 S 14 22 29.80 1009 10 16 N/A
2:55 pm 14:55 Sunny 82 27.6 56 13.2 41 41 S 16 26 29.80 1009 10 16 N/A
3:15 pm 15:15 Sunny 82 28 56 13.6 41 41 S 14 22 29.77 1008 10 16 N/A
3:35 pm 15:35 Sunny 83 28.5 56 13.5 40 40 S 17 28 29.77 1008 10 16 N/A
3:55 pm 15:55 Sunny 83 28.6 56 13.6 40 40 S 16 26 29.77 1008 10 16 N/A
4:15 pm 16:15 Sunny 84 29 57 13.9 40 40 S 14 22 29.77 1008 10 16 N/A
4:35 pm 16:35 Sunny 84 29.1 58 14.2 40 40 S 15 24 29.74 1007 10 16 N/A
4:55 pm 16:55 Sunny 84 29.1 57 14.1 40 40 S 15 24 29.74 1007 10 16 N/A
5:15 pm 17:15 Sunny 84 29.1 59 14.8 42 42 S 15 24 29.74 1007 10 16 N/A
5:35 pm 17:35 Sunny 84 29 59 14.9 42 42 S 14 22 29.74 1007 10 16 N/A
5:55 pm 17:55 Sunny 84 28.7 59 15 43 43 S 15 24 29.71 1006 10 16 N/A
6:15 pm 18:15 Sunny 83 28.4 60 15.3 45 45 S 14 22 29.71 1006 10 16 N/A
6:35 pm 18:35 Sunny 82 28 60 15.4 46 46 S 16 26 29.71 1006 10 16 N/A
6:55 pm 18:55 Sunny 81 27.2 60 15.5 49 49 S 15 24 29.71 1006 10 16 N/A
7:15 pm 19:15 Sunny 79 25.9 60 15.8 54 54 SSE 12 19 29.71 1006 10 16 N/A
7:35 pm 19:35 Sunny 78 25.4 61 16 56 56 SSE 14 22 29.71 1006 10 16 N/A
7:55 pm 19:55 Clear 77 24.9 61 16 58 58 SSE 15 24 29.71 1006 10 16 N/A
8:15 pm 20:15 Clear 75 24 61 15.9 61 61 SSE 14 22 29.71 1006 10 16 N/A
8:35 pm 20:35 Clear 74 23.6 60 15.6 61 61 SSE 16 26 29.71 1006 10 16 N/A
8:55 pm 20:55 Clear 74 23.2 60 15.3 61 61 SSE 16 26 29.71 1006 10 16 N/A
9:15 pm 21:15 Clear 73 22.5 59 15.2 63 63 SSE 13 20 29.71 1006 10 16 N/A
9:35 pm 21:35 Clear 72 22 59 14.9 64 64 SSE 13 20 29.71 1006 10 16 N/A
9:55 pm 21:55 Clear 71 21.8 58 14.7 64 64 SSE 15 24 29.71 1006 10 16 N/A
10:15 pm 22:15 Clear 71 21.9 58 14.3 62 62 SSE 16 26 29.71 1006 10 16 N/A
10:35 pm 22:35 Clear 71 21.5 58 14.3 64 64 SSE 18 30 29.71 1006 10 16 N/A
10:55 pm 22:55 Clear 71 21.5 57 14.1 63 63 S 16 26 29.77 1008 10 16 N/A
11:15 pm 23:15 Clear 70 21 57 14 64 64 S 16 26 29.74 1007 10 16 N/A
11:35 pm 23:35 Clear 69 20.7 57 14 66 66 S 17 28 29.74 1007 10 16 N/A
11:55 pm 23:55 Clear 68 20.2 57 14.1 68 68 S 16 26 29.74 1007 10 16 N/A

Powered by AerisWeather